TIANMU-1 10

Last updated on Fri Sep 11 2026 00:02:39 GMT+0000 (Coordinated Universal Time)

1 57402U 23101D 26253.41731671 .00004962 00000+0 16976-3 0 9995 2 57402 97.2546 302.4122 0004648 169.5643 190.5696 15.30692480174672
UTC large
Height (km)
Speed (km/s)
/
Latitude / Longitude
Inclination (degrees)
Orbital Period (minutes)
Azimuth
Elevation
Range (km)
Doppler Factor

Next 0 passes for location: London (51.5072 / 0.1276)

No passes found over London.
TIANMU-1 10